This demonstration page uses our WeatherBlox Daily Observations layout. Learn more.

Left ArrowRight Arrow

39.95238, -75.16362

Hourly Observations for May 25, 2016

Temp ( °F °C ) Dew Point ( °F °C ) Humidity (%) Winds ( mph kmh ) Pressure ( in mb ) Visibility ( mi km ) Precip ( " mm )
12:54 am 00:54 Clear 65 18.3 53 11.7 66 66 Calm 30.02 1017 10 16 0.00 0.00
1:54 am 01:54 Mostly Clear 63 17.2 53 11.7 70 70 Calm 30.02 1017 10 16 0.00 0.00
2:54 am 02:54 Clear 62 16.7 53 11.7 73 73 Calm 30.04 1017 10 16 0.00 0.00
3:54 am 03:54 Clear 61 16.1 52 11.1 72 72 WNW 3 6 30.05 1018 10 16 0.00 0.00
4:54 am 04:54 Mostly Clear 59 15 52 11.1 78 78 Calm 30.05 1018 10 16 0.00 0.00
5:43 am 05:43 Mostly Sunny 60 15.6 51 10.6 72 72 Calm 30.06 1018 8 13 0.00 0.00
5:54 am 05:54 Mostly Sunny 59 15 51 10.6 75 75 SW 5 7 30.07 1018 8 13 0.00 0.00
6:33 am 06:33 Mostly Sunny 61 16.1 52 11.1 72 72 SW 5 7 30.09 1019 10 16 0.00 0.00
6:54 am 06:54 Mostly Sunny 61 16.1 52 11.1 72 72 WSW 6 9 30.10 1019 10 16 0.00 0.00
7:54 am 07:54 Mostly Sunny 66 18.9 51 10.6 59 59 W 5 7 30.11 1020 10 16 0.00 0.00
8:54 am 08:54 Mostly Sunny 70 21.1 53 11.7 55 55 SW 6 9 30.11 1020 10 16 0.00 0.00
9:52 am 09:52 Partly Cloudy 79 26 46 8 32 32 NW 6 9 30.12 1020 10 16 0.00 0.00
9:54 am 09:54 Partly Cloudy 78 25.6 47 8.3 33 33 NW 7 11 30.11 1020 10 16 0.00 0.00
10:54 am 10:54 Partly Cloudy 80 26.7 43 6.1 27 27 VRB 5 7 30.11 1020 10 16 0.00 0.00
11:54 am 11:54 Mostly Cloudy 82 27.8 43 6.1 25 25 SSW 8 13 30.10 1019 10 16 0.00 0.00
12:54 pm 12:54 Mostly Cloudy 84 28.9 40 4.4 21 21 WSW 13 20 30.11 1020 10 16 0.00 0.00
1:54 pm 13:54 Mostly Cloudy 85 29.4 38 3.3 19 19 WSW 13 20 30.10 1019 10 16 0.00 0.00
2:54 pm 14:54 Mostly Cloudy 86 30 41 5 20 20 WSW 16 26 30.08 1019 10 16 0.00 0.00
3:54 pm 15:54 Mostly Cloudy 88 31.1 38 3.3 17 17 W 14 22 30.08 1019 10 16 0.00 0.00
4:54 pm 16:54 Mostly Cloudy 87 30.6 41 5 20 20 W 16 26 30.08 1019 10 16 0.00 0.00
5:54 pm 17:54 Mostly Cloudy 87 30.6 46 7.8 24 24 WSW 13 20 30.07 1018 10 16 0.00 0.00
6:54 pm 18:54 Mostly Cloudy 84 28.9 47 8.3 27 27 SW 13 20 30.07 1018 10 16 0.00 0.00
7:54 pm 19:54 Partly Cloudy 82 27.8 48 8.9 31 31 SW 10 17 30.07 1018 10 16 0.00 0.00
8:54 pm 20:54 Partly Cloudy 79 26.1 50 10 36 36 SW 12 19 30.09 1019 10 16 0.00 0.00
9:54 pm 21:54 Clear 76 24.4 52 11.1 43 43 SW 9 15 30.10 1019 10 16 0.00 0.00
10:54 pm 22:54 Mostly Clear 73 22.8 53 11.7 50 50 SW 6 9 30.10 1019 10 16 0.00 0.00
11:54 pm 23:54 Mostly Cloudy 72 22.2 54 12.2 53 53 SW 5 7 30.10 1019 10 16 0.00 0.00

Powered by AerisWeather